FW4092 Weather Reports


Display with metric or nautical units.
time (UTC)temp
F
wind
direction
speed
MPH
gust
MPH
rain 1hr
in
rain 24hr
in
rain mn
in
humidity
%
barometer
mb
20190917062304 47 146 1.0 3.0 0.00 0.02 0.01 76 1017.2
20190917061805 47 147 1.0 4.0 0.00 0.02 0.01 75 1017.1
20190917061304 48 143 2.0 4.0 0.00 0.02 0.01 74 1016.9
20190917060803 48 196 2.0 4.0 0.00 0.02 0.01 73 1017.0
20190917060302 48 225 2.0 4.0 0.00 0.02 0.01 73 1017.0
20190917055802 49 236 2.0 4.0 0.00 0.02 0.01 72 1017.1
20190917055302 49 246 2.0 4.0 0.00 0.03 0.01 71 1017.0
20190917054802 49 273 2.0 9.0 0.00 0.03 0.01 71 1017.0
20190917054302 49 300 3.0 9.0 0.00 0.04 0.01 71 1017.0
20190917053802 49 283 3.0 9.0 0.00 0.04 0.01 71 1016.9
20190917053302 49 274 3.0 9.0 0.00 0.04 0.01 71 1017.0
20190917052802 49 267 2.0 5.0 0.00 0.04 0.01 71 1016.9
20190917052301 49 292 2.0 7.0 0.00 0.05 0.01 72 1016.9
20190917051801 49 272 2.0 7.0 0.00 0.05 0.01 72 1017.0
20190917051300 49 288 3.0 5.0 0.00 0.05 0.01 72 1017.0
20190917050800 49 290 3.0 8.0 0.00 0.06 0.01 71 1016.9
20190917050259 50 298 3.0 8.0 0.00 0.06 0.01 71 1016.8
20190917045759 50 291 4.0 8.0 0.00 0.07 0.01 70 1016.8
20190917045259 50 294 4.0 9.0 0.00 0.08 0.01 70 1016.8
20190917044800 50 281 4.0 9.0 0.00 0.08 0.01 70 1016.8
20190917044259 50 277 4.0 9.0 0.00 0.08 0.01 70 1016.6
20190917043759 50 303 5.0 12.0 0.00 0.09 0.01 70 1016.6
20190917043300 50 313 4.0 12.0 0.00 0.09 0.01 71 1016.6
20190917042800 50 324 4.0 9.0 0.00 0.10 0.01 71 1016.6
20190917042259 50 292 4.0 8.0 0.00 0.10 0.01 72 1016.8
20190917041800 50 311 4.0 9.0 0.00 0.10 0.01 72 1016.8
20190917041300 50 271 4.0 9.0 0.00 0.10 0.01 72 1016.8
20190917040759 50 276 4.0 9.0 0.00 0.10 0.01 72 1016.6
20190917040300 49 286 3.0 8.0 0.00 0.10 0.01 73 1016.8
20190917035759 49 274 3.0 8.0 0.00 0.10 0.01 73 1016.8
20190917035259 49 284 3.0 9.0 0.00 0.10 0.01 73 1016.8
20190917034800 50 283 3.0 9.0 0.00 0.10 0.01 72 1016.6
20190917034259 50 294 4.0 8.0 0.00 0.10 0.01 72 1016.6
20190917033757 50 278 4.0 10.0 0.00 0.10 0.01 71 1016.6
20190917033257 50 302 3.0 10.0 0.00 0.10 0.01 71 1016.5
20190917032758 50 312 3.0 8.0 0.00 0.10 0.01 72 1016.4
20190917032257 50 289 4.0 8.0 0.00 0.10 0.01 71 1016.5
20190917031757 50 297 3.0 8.0 0.00 0.10 0.01 70 1016.5
20190917031257 51 270 3.0 7.0 0.00 0.10 0.01 70 1016.4
20190917030758 51 311 4.0 10.0 0.00 0.10 0.01 69 1016.4
20190917030258 51 296 4.0 10.0 0.00 0.10 0.01 68 1016.5
20190917025757 51 296 4.0 10.0 0.00 0.10 0.01 68 1016.4
20190917025256 51 298 4.0 10.0 0.00 0.10 0.01 68 1016.3
20190917024801 51 270 4.0 10.0 0.00 0.10 0.01 67 1016.2
20190917024258 52 296 4.0 10.0 0.00 0.10 0.01 67 1016.2
20190917023758 52 281 4.0 10.0 0.00 0.10 0.01 66 1016.2
20190917023258 52 265 4.0 10.0 0.00 0.10 0.01 66 1016.1
20190917022755 52 303 4.0 10.0 0.00 0.10 0.01 65 1016.2
20190917022256 53 300 4.0 8.0 0.00 0.10 0.01 64 1016.1
20190917021756 53 295 5.0 11.0 0.00 0.10 0.01 64 1016.0
20190917021255 53 283 5.0 11.0 0.00 0.10 0.01 64 1016.0
20190917020754 53 267 5.0 11.0 0.00 0.10 0.01 63 1015.9
20190917020253 54 301 5.0 12.0 0.00 0.10 0.01 62 1015.9
20190917015753 54 293 5.0 12.0 0.00 0.10 0.01 61 1015.9
20190917015255 55 321 6.0 12.0 0.00 0.10 0.01 61 1015.9
20190917014753 55 302 5.0 12.0 0.00 0.10 0.01 59 1015.8
20190917014253 56 277 4.0 10.0 0.00 0.10 0.01 58 1015.9
20190917013753 56 281 4.0 8.0 0.00 0.10 0.01 59 1015.8
20190917013253 56 329 4.0 9.0 0.00 0.10 0.01 58 1015.8
20190917012753 56 296 4.0 9.0 0.00 0.10 0.01 58 1015.7
20190917012253 56 296 4.0 10.0 0.00 0.10 0.01 57 1015.6
20190917011753 56 301 5.0 10.0 0.00 0.10 0.01 58 1015.4
20190917011253 56 289 5.0 12.0 0.00 0.11 0.01 57 1015.3
20190917010754 56 281 6.0 12.0 0.00 0.11 0.01 57 1015.2
20190917010253 56 254 6.0 12.0 0.00 0.11 0.01 57 1015.3
20190917005753 56 292 6.0 12.0 0.00 0.11 0.01 57 1015.2
20190917005253 56 286 7.0 14.0 0.00 0.11 0.01 56 1015.2
20190917004753 56 273 8.0 18.0 0.00 0.11 0.01 56 1015.1
20190917004252 56 294 10.0 18.0 0.00 0.11 0.01 56 1015.0
20190917003753 56 310 10.0 17.0 0.00 0.11 0.01 56 1015.0
20190917003251 57 292 8.0 17.0 0.00 0.11 0.01 55 1014.9
20190917002751 58 312 6.0 14.0 0.00 0.11 0.01 54 1014.9
20190917002251 59 323 6.0 13.0 0.00 0.11 0.01 56 1014.6
20190917001751 59 345 7.0 15.0 0.00 0.11 0.01 56 1014.6
20190917001251 58 317 8.0 16.0 0.00 0.11 0.01 55 1014.7
20190917000751 58 324 9.0 19.0 0.00 0.11 0.01 55 1014.6
20190917000251 59 266 9.0 19.0 0.00 0.11 0.01 54 1014.6
20190916235752 60 313 9.0 17.0 0.00 0.11 0.01 54 1014.5
20190916235250 60 298 7.0 14.0 0.00 0.11 0.01 53 1014.4
20190916234749 60 292 6.0 13.0 0.00 0.11 0.01 51 1014.4
20190916234248 61 279 6.0 11.0 0.00 0.11 0.01 50 1014.2
20190916233752 61 271 6.0 14.0 0.00 0.11 0.01 48 1014.2
20190916233249 61 291 7.0 14.0 0.00 0.11 0.01 48 1014.1
20190916232749 60 275 6.0 14.0 0.00 0.11 0.01 49 1014.1
20190916232249 61 285 6.0 12.0 0.00 0.11 0.01 48 1014.1
20190916231751 62 280 6.0 11.0 0.00 0.11 0.01 46 1014.0
20190916231249 62 246 6.0 12.0 0.00 0.11 0.01 47 1014.0
20190916230749 62 272 5.0 13.0 0.00 0.11 0.01 47 1014.0
20190916230248 63 260 5.0 13.0 0.00 0.11 0.01 46 1014.0
20190916225748 63 280 6.0 11.0 0.00 0.11 0.01 44 1014.0
20190916225249 62 218 6.0 13.0 0.00 0.11 0.01 44 1014.1
20190916224749 63 254 6.0 13.0 0.00 0.11 0.01 44 1014.1
20190916224249 62 292 6.0 12.0 0.00 0.11 0.01 46 1014.0
20190916223750 62 270 6.0 12.0 0.00 0.11 0.01 49 1013.9
20190916223249 62 317 5.0 12.0 0.00 0.11 0.01 48 1014.1
20190916222749 61 272 5.0 14.0 0.00 0.11 0.01 51 1014.1
20190916222249 61 238 7.0 14.0 0.00 0.11 0.01 51 1014.1
20190916221748 60 253 7.0 17.0 0.00 0.11 0.01 53 1014.1
20190916221248 61 263 6.0 17.0 0.00 0.11 0.01 50 1014.2
20190916220748 61 274 6.0 14.0 0.00 0.11 0.01 51 1014.0
20190916220249 60 328 5.0 13.0 0.00 0.11 0.01 54 1014.0
20190916215750 60 310 5.0 13.0 0.00 0.11 0.01 53 1014.1
20190916215249 61 256 5.0 12.0 0.00 0.11 0.01 50 1014.1
20190916214749 61 267 7.0 15.0 0.00 0.11 0.01 50 1014.0
20190916214249 61 321 8.0 15.0 0.00 0.11 0.01 52 1013.8
20190916213749 62 247 7.0 15.0 0.00 0.11 0.01 53 1013.7
20190916213249 62 306 7.0 15.0 0.00 0.11 0.01 52 1013.7
20190916212749 61 265 7.0 14.0 0.00 0.11 0.01 53 1013.7
20190916212248 62 314 7.0 16.0 0.00 0.11 0.01 54 1013.6
20190916211749 61 264 6.0 16.0 0.00 0.11 0.01 54 1013.7
20190916211250 61 261 6.0 11.0 0.00 0.11 0.01 56 1013.7
20190916210749 60 271 6.0 13.0 0.00 0.11 0.01 56 1013.6
20190916210249 60 302 6.0 13.0 0.00 0.11 0.01 54 1013.6
20190916205748 59 239 5.0 13.0 0.00 0.11 0.01 58 1013.5
20190916205251 58 278 5.0 13.0 0.00 0.11 0.01 57 1013.7
20190916204748 58 331 5.0 12.0 0.00 0.11 0.01 57 1013.5
20190916204249 59 258 3.0 11.0 0.00 0.11 0.01 57 1013.4
20190916203748 59 296 2.0 6.0 0.00 0.11 0.01 56 1013.3
20190916203246 59 325 3.0 7.0 0.00 0.11 0.01 55 1013.3
20190916202745 60 307 2.0 7.0 0.00 0.11 0.01 54 1013.4
20190916202245 60 222 2.0 4.0 0.00 0.11 0.01 53 1013.4
20190916201744 61 321 2.0 5.0 0.00 0.11 0.01 53 1013.3
20190916201244 61 332 2.0 5.0 0.00 0.11 0.01 51 1013.4
20190916200747 61 340 1.0 4.0 0.00 0.11 0.01 53 1013.5
20190916200245 60 31 2.0 6.0 0.00 0.11 0.01 54 1013.4
20190916195744 60 202 2.0 6.0 0.00 0.11 0.01 53 1013.4
20190916195245 59 298 2.0 6.0 0.00 0.11 0.01 60 1013.4
20190916194745 59 189 2.0 6.0 0.00 0.11 0.01 68 1013.4
20190916194244 58 150 2.0 7.0 0.00 0.11 0.01 64 1013.4
20190916193744 58 111 2.0 7.0 0.00 0.11 0.01 66 1013.4
20190916193242 58 273 2.0 7.0 0.00 0.11 0.01 63 1013.3
20190916192742 58 257 1.0 4.0 0.00 0.11 0.01 66 1013.4
20190916192242 57 153 1.0 4.0 0.00 0.11 0.01 67 1013.6
20190916191742 57 22 1.0 4.0 0.00 0.11 0.01 66 1013.6
20190916191243 57 85 1.0 4.0 0.00 0.11 0.01 68 1013.5
20190916190742 57 33 1.0 4.0 0.00 0.11 0.01 68 1013.6
20190916190242 57 240 2.0 4.0 0.00 0.11 0.01 63 1013.6
20190916185742 57 284 2.0 4.0 0.00 0.11 0.01 64 1013.6
20190916185242 57 205 2.0 6.0 0.00 0.11 0.01 69 1013.7
20190916184741 57 109 1.0 6.0 0.00 0.11 0.01 68 1013.6
20190916184240 57 150 2.0 6.0 0.00 0.11 0.01 66 1013.6
20190916183740 56 162 2.0 6.0 0.00 0.11 0.01 66 1013.6
20190916183240 56 332 2.0 5.0 0.00 0.11 0.01 64 1013.6
20190916182740 56 338 2.0 5.0 0.00 0.11 0.01 69 1013.7
20190916182240 55 342 2.0 5.0 0.00 0.11 0.01 68 1013.6
20190916181739 55 279 3.0 6.0 0.00 0.11 0.01 66 1013.6
20190916181240 55 302 4.0 9.0 0.00 0.11 0.01 70 1013.6
20190916180739 55 322 3.0 9.0 0.00 0.11 0.01 72 1013.6
20190916180240 55 275 2.0 7.0 0.00 0.11 0.01 70 1013.7
20190916175738 55 262 3.0 7.0 0.00 0.11 0.01 71 1013.7
20190916175238 55 280 3.0 6.0 0.00 0.11 0.01 72 1013.6
20190916174738 55 238 2.0 6.0 0.00 0.11 0.01 73 1013.6
20190916174238 55 267 2.0 6.0 0.00 0.11 0.01 79 1013.7
20190916173738 54 246 1.0 6.0 0.00 0.11 0.01 75 1013.6
20190916173238 54 326 1.0 6.0 0.00 0.11 0.01 79 1013.7
20190916172738 53 205 2.0 4.0 0.00 0.11 0.01 78 1013.7
20190916172239 53 244 2.0 4.0 0.00 0.11 0.01 78 1013.8
20190916171738 53 262 1.0 4.0 0.00 0.11 0.01 81 1013.8
20190916171235 53 214 1.0 4.0 0.00 0.11 0.01 79 1013.8
20190916170736 53 271 1.0 4.0 0.00 0.11 0.01 83 1013.7
20190916170236 52 278 1.0 3.0 0.00 0.11 0.01 81 1013.7
20190916165735 52 268 1.0 3.0 0.00 0.11 0.01 81 1013.7
20190916165236 52 273 1.0 2.0 0.00 0.11 0.01 82 1013.6
20190916164737 52 279 1.0 2.0 0.00 0.11 0.01 82 1013.6
20190916164235 52 282 1.0 2.0 0.00 0.11 0.01 83 1013.6
20190916163735 52 298 1.0 3.0 0.00 0.11 0.01 85 1013.4
20190916163236 51 311 1.0 3.0 0.00 0.11 0.01 83 1013.4
20190916162736 51 308 1.0 6.0 0.00 0.11 0.01 85 1013.4
20190916162235 51 280 2.0 6.0 0.00 0.11 0.01 86 1013.4
20190916161736 51 313 2.0 6.0 0.00 0.11 0.01 85 1013.4
20190916161235 51 275 1.0 6.0 0.00 0.11 0.01 86 1013.3
20190916160736 51 293 1.0 3.0 0.00 0.11 0.01 87 1013.3
20190916160236 50 283 1.0 3.0 0.00 0.11 0.01 89 1013.3
20190916155736 50 314 1.0 2.0 0.00 0.11 0.01 90 1013.2
20190916155237 50 315 1.0 2.0 0.00 0.11 0.01 92 1013.3
20190916154736 50 315 1.0 2.0 0.00 0.11 0.01 90 1013.3
20190916154241 50 315 1.0 3.0 0.00 0.11 0.01 88 1013.3
20190916153734 50 344 1.0 3.0 0.00 0.11 0.01 90 1013.2
20190916153233 50 323 1.0 3.0 0.00 0.11 0.01 90 1013.2
20190916152734 49 342 1.0 3.0 0.00 0.11 0.01 91 1013.0
20190916152231 49 348 1.0 3.0 0.00 0.11 0.01 93 1013.0
20190916151731 49 226 0.0 1.0 0.00 0.11 0.01 92 1013.2
20190916151232 49 226 1.0 2.0 0.00 0.11 0.01 94 1013.2
20190916150731 49 226 1.0 2.0 0.00 0.11 0.01 94 1013.4
20190916150232 49 226 1.0 2.0 0.00 0.11 0.01 95 1013.4
20190916145732 49 226 1.0 2.0 0.00 0.11 0.01 94 1013.3
20190916145230 49 226 1.0 3.0 0.00 0.11 0.01 94 1013.3
20190916144730 48 226 1.0 3.0 0.00 0.11 0.01 94 1013.2
20190916144228 48 223 1.0 3.0 0.00 0.11 0.01 95 1013.4
20190916143730 48 232 1.0 3.0 0.00 0.11 0.01 95 1013.4
20190916143230 48 211 1.0 2.0 0.00 0.11 0.01 96 1013.3
20190916142735 49 209 1.0 2.0 0.00 0.11 0.01 96 1013.3
20190916142229 49 192 1.0 2.0 0.00 0.11 0.01 96 1013.2
20190916141729 49 192 0.0 2.0 0.00 0.11 0.01 96 1012.9
20190916141230 49 192 0.0 2.0 0.00 0.11 0.01 97 1012.8
20190916140730 49 192 1.0 2.0 0.00 0.11 0.01 97 1012.8
20190916140230 49 192 1.0 2.0 0.00 0.11 0.01 97 1012.8
20190916135729 49 192 0.0 2.0 0.00 0.11 0.01 97 1012.7
20190916135228 49 165 1.0 2.0 0.00 0.11 0.01 97 1012.6
20190916134727 49 156 1.0 2.0 0.00 0.11 0.01 97 1012.6
20190916134228 49 156 1.0 2.0 0.00 0.11 0.01 97 1012.5
20190916133727 49 159 1.0 2.0 0.00 0.11 0.01 97 1012.5
20190916133227 49 159 0.0 2.0 0.00 0.11 0.01 97 1012.5
20190916132728 49 159 0.0 2.0 0.00 0.11 0.01 97 1012.5
20190916132227 49 159 1.0 3.0 0.00 0.11 0.01 97 1012.5
20190916131727 49 159 0.0 3.0 0.00 0.11 0.01 97 1012.4
20190916131227 49 180 0.0 1.0 0.00 0.11 0.01 97 1012.5
20190916130730 49 180 0.0 2.0 0.00 0.11 0.01 97 1012.6
20190916130228 49 204 0.0 2.0 0.00 0.11 0.01 97 1012.4
20190916125727 49 205 0.0 2.0 0.00 0.11 0.01 97 1012.4
20190916125230 49 205 0.0 1.0 0.00 0.11 0.01 97 1012.5
20190916124727 49 205 0.0 2.0 0.00 0.11 0.01 97 1012.1
20190916124225 49 205 1.0 2.0 0.00 0.11 0.01 97 1012.2
20190916123725 49 205 1.0 3.0 0.00 0.11 0.01 97 1012.2
20190916123224 49 134 1.0 3.0 0.00 0.11 0.01 97 1012.1
20190916122725 49 157 1.0 2.0 0.00 0.11 0.01 97 1012.2
20190916122225 49 141 1.0 2.0 0.00 0.11 0.01 97 1012.2
20190916121725 49 184 1.0 2.0 0.00 0.11 0.01 97 1012.3
20190916121225 49 184 0.0 1.0 0.00 0.11 0.01 97 1012.2
20190916120725 49 185 0.0 1.0 0.00 0.11 0.01 97 1012.1
20190916120225 49 185 0.0 0.0 0.00 0.11 0.01 97 1011.9
20190916115725 49 185 0.0 0.0 0.00 0.11 0.01 97 1012.1
20190916115225 49 185 0.0 0.0 0.00 0.11 0.01 97 1012.0
20190916114725 49 185 0.0 0.0 0.00 0.11 0.01 97 1012.0
20190916114225 49 184 0.0 0.0 0.00 0.11 0.01 97 1012.1
20190916113723 49 185 0.0 0.0 0.00 0.11 0.01 97 1012.1
20190916113223 49 185 0.0 0.0 0.00 0.11 0.01 97 1012.2
20190916112723 49 186 0.0 0.0 0.00 0.11 0.01 97 1012.1
20190916112223 49 186 0.0 0.0 0.00 0.11 0.01 97 1012.2
20190916111722 49 186 0.0 2.0 0.00 0.11 0.01 97 1012.2
20190916111223 49 186 1.0 2.0 0.00 0.11 0.01 96 1012.2
20190916110723 49 163 1.0 2.0 0.00 0.11 0.01 97 1012.2
20190916110222 49 163 0.0 1.0 0.00 0.11 0.01 97 1012.1
20190916105723 49 163 0.0 1.0 0.00 0.11 0.01 97 1012.1
20190916105223 49 163 0.0 2.0 0.00 0.11 0.01 97 1012.3
20190916104723 49 152 0.0 2.0 0.00 0.11 0.01 97 1012.2
20190916104222 49 321 0.0 2.0 0.00 0.11 0.01 97 1012.3
20190916103723 49 344 0.0 1.0 0.00 0.11 0.01 97 1012.2
20190916103223 49 350 0.0 1.0 0.00 0.11 0.01 97 1012.1
20190916102722 49 350 0.0 0.0 0.00 0.11 0.01 97 1012.1
20190916102222 49 350 0.0 1.0 0.00 0.11 0.01 96 1012.1
20190916101723 49 350 0.0 1.0 0.00 0.11 0.01 96 1012.1
20190916101222 49 350 0.0 1.0 0.00 0.11 0.01 96 1012.3
20190916100723 49 350 0.0 1.0 0.00 0.11 0.01 96 1012.2
20190916100222 49 355 0.0 0.0 0.00 0.11 0.01 96 1012.1
20190916095723 49 355 0.0 0.0 0.00 0.11 0.01 96 1012.1
20190916095223 49 355 0.0 1.0 0.00 0.11 0.01 96 1012.0
20190916094722 49 355 0.0 2.0 0.00 0.11 0.01 96 1012.0
20190916094222 49 355 0.0 2.0 0.00 0.11 0.01 96 1012.0
20190916093721 49 336 0.0 2.0 0.00 0.11 0.01 96 1012.0
20190916093221 49 330 0.0 1.0 0.00 0.11 0.01 96 1012.1
20190916092720 49 330 0.0 1.0 0.00 0.11 0.01 96 1012.0
20190916092219 49 329 0.0 0.0 0.00 0.11 0.01 96 1012.2
20190916091722 49 329 0.0 1.0 0.00 0.11 0.01 96 1012.3
20190916091221 49 329 0.0 2.0 0.00 0.11 0.01 96 1012.4
20190916090719 49 329 0.0 2.0 0.00 0.11 0.01 96 1012.2
20190916090219 49 328 0.0 2.0 0.00 0.11 0.01 96 1012.3
20190916085718 49 337 0.0 1.0 0.00 0.11 0.01 95 1012.4
20190916085217 49 54 0.0 2.0 0.00 0.11 0.01 95 1012.3
20190916084719 49 54 0.0 2.0 0.00 0.11 0.01 96 1012.1
20190916084217 49 35 0.0 1.0 0.00 0.11 0.01 95 1012.0
20190916083718 49 35 0.0 2.0 0.00 0.11 0.01 96 1012.0
20190916083217 50 35 0.0 2.0 0.00 0.11 0.01 96 1011.9
20190916082715 50 15 1.0 2.0 0.01 0.11 0.01 96 1012.1
20190916082214 50 341 1.0 2.0 0.01 0.11 0.01 95 1012.3
20190916081715 50 275 0.0 2.0 0.01 0.11 0.01 95 1012.6
20190916081214 50 131 0.0 2.0 0.01 0.11 0.01 95 1012.6
20190916080713 50 127 1.0 4.0 0.01 0.11 0.01 95 1012.6
20190916080214 50 126 2.0 7.0 0.01 0.11 0.01 95 1012.5
20190916075713 49 101 1.0 7.0 0.01 0.11 0.01 95 1012.3
20190916075214 49 138 1.0 5.0 0.01 0.11 0.01 95 1012.4
20190916074713 49 156 2.0 6.0 0.01 0.11 0.01 95 1012.3
20190916074212 49 133 2.0 6.0 0.01 0.11 0.01 95 1012.0
20190916073712 49 90 2.0 4.0 0.01 0.11 0.01 95 1012.1
20190916073212 49 101 1.0 4.0 0.01 0.11 0.01 95 1012.2
20190916072713 49 94 0.0 2.0 0.00 0.10 0.00 96 1012.3
20190916072213 49 173 0.0 1.0 0.01 0.10 0.00 95 1012.6
20190916071711 49 173 0.0 1.0 0.01 0.10 0.00 95 1012.6
20190916071210 49 168 1.0 3.0 0.01 0.10 0.00 95 1012.5
20190916070710 49 168 1.0 3.0 0.01 0.10 0.00 95 1012.4
20190916070208 49 167 1.0 3.0 0.01 0.10 0.00 95 1012.4
20190916065710 49 140 1.0 3.0 0.01 0.10 0.10 95 1012.2
20190916065208 49 132 1.0 3.0 0.02 0.10 0.10 95 1012.1
20190916064709 49 128 1.0 5.0 0.02 0.10 0.10 95 1012.1
20190916064208 49 103 1.0 5.0 0.03 0.10 0.10 95 1012.2
20190916063708 49 142 1.0 3.0 0.03 0.10 0.10 95 1012.4
20190916063208 50 109 1.0 3.0 0.03 0.10 0.10 95 1012.4
20190916062706 50 104 1.0 3.0 0.04 0.10 0.10 95 1012.3